Погода в Никосии

Кипр     35°10′11″N   33°21′34″E
темп.,
°C
ветер,
м/с
пор.,
м/с
влажн.,
%
обл.,
%
осадки,
мм/ч
давл.,
гПа
погр.,
м
14 апреля, ср
ср1400:00+12з33675 0.0 1021142
03:00+11зюз22710 0.0 1020123
06:00+10ю117718 0.0 102063
09:00+15юв115488 0.0 1021356
12:00+18ссв22452 0.0 10211150
15:00+19с33481 0.0 10191013
18:00+17сз43545 0.0 1019602
21:00+13з237049 0.0 102094
15 апреля, чт
чт1500:00+12з1177100 0.0 101990
03:00+11ю01783 0.0 101936
06:00+11ю11775 0.0 101833
09:00+16в115451 0.0 1019311
12:00+20с22445 0.0 1019888
15:00+20сз43450 0.0 1017736
18:00+19зсз434544 0.0 1017397
21:00+16зюз3359100 0.0 101726
16 апреля, пт
пт1600:00+15юв0163100 0.0 101612
03:00+14юз0064100 0.0 101611
06:00+14ююв1163100 0.0 101511
09:00+18в2251100 0.0 1017207
12:00+22св214361 0.0 1017760
15:00+22ссз33425 0.0 1016927
18:00+21сз22405 0.0 1016412
21:00+17з225415 0.0 101715
17 апреля, сб
сб1700:00+16з33575 0.0 101731
03:00+14з116510 0.0 101511
06:00+14юв22579 0.0 101511
09:00+20в224299 0.0 1017224
12:00+23с223725 0.0 1016763
15:00+25с3233100 0.0 1015775
18:00+23ссз223895 0.0 1016240
21:00+18ююв115239 0.0 101611
18 апреля, вс
вс1800:00+18сз224963 0.0 101711
03:00+18ююв124496 0.0 101512
06:00+20вюв4535100 0.0 101536
09:00+23ссв1131100 0.0 1017145
12:00+26всв2227100 0.0 1016308
15:00+28св3225100 0.0 1015443
18:00+25всв5636100 0.0 1015129
21:00+21вюв3349100 0.0 101518